Year,Month,Day,Hour,Minute,Value (Times are PST for temperature in C)
2011,08,16,00,00,13.60
2011,08,16,00,01,13.70
2011,08,16,00,02,13.70
2011,08,16,00,03,13.60
2011,08,16,00,04,13.60
2011,08,16,00,05,13.60
2011,08,16,00,06,13.60
2011,08,16,00,07,13.60
2011,08,16,00,08,13.70
2011,08,16,00,09,13.60
2011,08,16,00,10,13.60
2011,08,16,00,11,13.60
2011,08,16,00,12,13.60
2011,08,16,00,13,13.60
2011,08,16,00,14,13.60
2011,08,16,00,15,13.60
2011,08,16,00,16,13.60
2011,08,16,00,17,13.60
2011,08,16,00,18,13.60
2011,08,16,00,19,13.60
2011,08,16,00,20,13.60
2011,08,16,00,21,13.60
2011,08,16,00,22,13.60
2011,08,16,00,23,13.50
2011,08,16,00,24,13.50
2011,08,16,00,25,13.50
2011,08,16,00,26,13.50
2011,08,16,00,27,13.40
2011,08,16,00,28,13.40
2011,08,16,00,29,13.40
2011,08,16,00,30,13.40
2011,08,16,00,31,13.30
2011,08,16,00,32,13.30
2011,08,16,00,33,13.30
2011,08,16,00,34,13.20
2011,08,16,00,35,13.20
2011,08,16,00,36,13.20
2011,08,16,00,37,13.10
2011,08,16,00,38,13.10
2011,08,16,00,39,13.10
2011,08,16,00,40,13.00
2011,08,16,00,41,13.00
2011,08,16,00,42,12.90
2011,08,16,00,43,12.90
2011,08,16,00,44,12.90
2011,08,16,00,45,12.80
2011,08,16,00,46,12.80
2011,08,16,00,47,12.80
2011,08,16,00,48,12.80
2011,08,16,00,49,12.70
2011,08,16,00,50,12.70
2011,08,16,00,51,12.70
2011,08,16,00,52,12.70
2011,08,16,00,53,12.60
2011,08,16,00,54,12.60
2011,08,16,00,55,12.60
2011,08,16,00,56,12.50
2011,08,16,00,57,12.50
2011,08,16,00,58,12.50
2011,08,16,00,59,12.40
2011,08,16,01,00,12.40
2011,08,16,01,01,12.30
2011,08,16,01,02,12.30
2011,08,16,01,03,12.30
2011,08,16,01,04,12.20
2011,08,16,01,05,12.20
2011,08,16,01,06,12.20
2011,08,16,01,07,12.10
2011,08,16,01,08,12.10
2011,08,16,01,09,12.10
2011,08,16,01,10,12.00
2011,08,16,01,11,12.00
2011,08,16,01,12,11.90
2011,08,16,01,13,11.90
2011,08,16,01,14,11.90
2011,08,16,01,15,11.90
2011,08,16,01,16,11.80
2011,08,16,01,17,11.80
2011,08,16,01,18,11.80
2011,08,16,01,19,11.80
2011,08,16,01,20,11.80
2011,08,16,01,21,11.80
2011,08,16,01,22,11.80
2011,08,16,01,23,11.70
2011,08,16,01,24,11.70
2011,08,16,01,25,11.70
2011,08,16,01,26,11.70
2011,08,16,01,27,11.70
2011,08,16,01,28,11.70
2011,08,16,01,29,11.60
2011,08,16,01,30,11.60
2011,08,16,01,31,11.60
2011,08,16,01,32,11.60
2011,08,16,01,33,11.60
2011,08,16,01,34,11.60
2011,08,16,01,35,11.60
2011,08,16,01,36,11.50
2011,08,16,01,37,11.50
2011,08,16,01,38,11.50
2011,08,16,01,39,11.50
2011,08,16,01,40,11.40
2011,08,16,01,41,11.40
2011,08,16,01,42,11.40
2011,08,16,01,43,11.40
2011,08,16,01,44,11.30
2011,08,16,01,45,11.30
2011,08,16,01,46,11.30
2011,08,16,01,47,11.30
2011,08,16,01,48,11.30
2011,08,16,01,49,11.20
2011,08,16,01,50,11.20
2011,08,16,01,51,11.20
2011,08,16,01,52,11.20
2011,08,16,01,53,11.20
2011,08,16,01,54,11.20
2011,08,16,01,55,11.20
2011,08,16,01,56,11.20
2011,08,16,01,57,11.20
2011,08,16,01,58,11.20
2011,08,16,01,59,11.20
2011,08,16,02,00,11.20
2011,08,16,02,01,11.20
2011,08,16,02,02,11.20
2011,08,16,02,03,11.20
2011,08,16,02,04,11.20
2011,08,16,02,05,11.20
2011,08,16,02,06,11.20
2011,08,16,02,07,11.20
2011,08,16,02,08,11.20
2011,08,16,02,09,11.20
2011,08,16,02,10,11.20
2011,08,16,02,11,11.20
2011,08,16,02,12,11.10
2011,08,16,02,13,11.10
2011,08,16,02,14,11.10
2011,08,16,02,15,11.10
2011,08,16,02,16,11.10
2011,08,16,02,17,11.10
2011,08,16,02,18,11.00
2011,08,16,02,19,11.00
2011,08,16,02,20,11.00
2011,08,16,02,21,10.90
2011,08,16,02,22,10.90
2011,08,16,02,23,10.90
2011,08,16,02,24,10.80
2011,08,16,02,25,10.80
2011,08,16,02,26,10.80
2011,08,16,02,27,10.80
2011,08,16,02,28,10.80
2011,08,16,02,29,10.80
2011,08,16,02,30,10.80
2011,08,16,02,31,10.80
2011,08,16,02,32,10.80
2011,08,16,02,33,10.80
2011,08,16,02,34,10.70
2011,08,16,02,35,10.70
2011,08,16,02,36,10.70
2011,08,16,02,37,10.70
2011,08,16,02,38,10.70
2011,08,16,02,39,10.60
2011,08,16,02,40,10.60
2011,08,16,02,41,10.60
2011,08,16,02,42,10.60
2011,08,16,02,43,10.60
2011,08,16,02,44,10.50
2011,08,16,02,45,10.50
2011,08,16,02,46,10.50
2011,08,16,02,47,10.50
2011,08,16,02,48,10.50
2011,08,16,02,49,10.50
2011,08,16,02,50,10.50
2011,08,16,02,51,10.50
2011,08,16,02,52,10.50
2011,08,16,02,53,10.50
2011,08,16,02,54,10.40
2011,08,16,02,55,10.40
2011,08,16,02,56,10.40
2011,08,16,02,57,10.40
2011,08,16,02,58,10.40
2011,08,16,02,59,10.40
2011,08,16,03,00,10.40
2011,08,16,03,01,10.40
2011,08,16,03,02,10.40
2011,08,16,03,03,10.40
2011,08,16,03,04,10.40
2011,08,16,03,05,10.30
2011,08,16,03,06,10.30
2011,08,16,03,07,10.30
2011,08,16,03,08,10.30
2011,08,16,03,09,10.30
2011,08,16,03,10,10.30
2011,08,16,03,11,10.20
2011,08,16,03,12,10.20
2011,08,16,03,13,10.20
2011,08,16,03,14,10.20
2011,08,16,03,15,10.20
2011,08,16,03,16,10.20
2011,08,16,03,17,10.20
2011,08,16,03,18,10.10
2011,08,16,03,19,10.10
2011,08,16,03,20,10.10
2011,08,16,03,21,10.10
2011,08,16,03,22,10.10
2011,08,16,03,23,10.10
2011,08,16,03,24,10.10
2011,08,16,03,25,10.10
2011,08,16,03,26,10.10
2011,08,16,03,27,10.10
2011,08,16,03,28,10.10
2011,08,16,03,29,10.10
2011,08,16,03,30,10.10
2011,08,16,03,31,10.10
2011,08,16,03,32,10.00
2011,08,16,03,33,10.00
2011,08,16,03,34,10.00
2011,08,16,03,35,10.00
2011,08,16,03,36,10.10
2011,08,16,03,37,10.10
2011,08,16,03,38,10.10
2011,08,16,03,39,10.10
2011,08,16,03,40,10.10
2011,08,16,03,41,10.10
2011,08,16,03,42,10.10
2011,08,16,03,43,10.00
2011,08,16,03,44,10.00
2011,08,16,03,45,10.00
2011,08,16,03,46,9.90
2011,08,16,03,47,9.90
2011,08,16,03,48,9.90
2011,08,16,03,49,9.90
2011,08,16,03,50,9.80
2011,08,16,03,51,9.80
2011,08,16,03,52,9.80
2011,08,16,03,53,9.80
2011,08,16,03,54,9.70
2011,08,16,03,55,9.70
2011,08,16,03,56,9.70
2011,08,16,03,57,9.70
2011,08,16,03,58,9.70
2011,08,16,03,59,9.70
2011,08,16,04,00,9.70
2011,08,16,04,01,9.70
2011,08,16,04,02,9.70
2011,08,16,04,03,9.60
2011,08,16,04,04,9.60
2011,08,16,04,05,9.60
2011,08,16,04,06,9.60
2011,08,16,04,07,9.60
2011,08,16,04,08,9.60
2011,08,16,04,09,9.60
2011,08,16,04,10,9.60
2011,08,16,04,11,9.60
2011,08,16,04,12,9.60
2011,08,16,04,13,9.60
2011,08,16,04,14,9.60
2011,08,16,04,15,9.50
2011,08,16,04,16,9.50
2011,08,16,04,17,9.50
2011,08,16,04,18,9.50
2011,08,16,04,19,9.50
2011,08,16,04,20,9.50
2011,08,16,04,21,9.50
2011,08,16,04,22,9.50
2011,08,16,04,23,9.40
2011,08,16,04,24,9.40
2011,08,16,04,25,9.40
2011,08,16,04,26,9.40
2011,08,16,04,27,9.40
2011,08,16,04,28,9.40
2011,08,16,04,29,9.40
2011,08,16,04,30,9.40
2011,08,16,04,31,9.40
2011,08,16,04,32,9.40
2011,08,16,04,33,9.40
2011,08,16,04,34,9.40
2011,08,16,04,35,9.30
2011,08,16,04,36,9.30
2011,08,16,04,37,9.30
2011,08,16,04,38,9.30
2011,08,16,04,39,9.30
2011,08,16,04,40,9.30
2011,08,16,04,41,9.40
2011,08,16,04,42,9.40
2011,08,16,04,43,9.40
2011,08,16,04,44,9.30
2011,08,16,04,45,9.40
2011,08,16,04,46,9.30
2011,08,16,04,47,9.40
2011,08,16,04,48,9.30
2011,08,16,04,49,9.30
2011,08,16,04,50,9.30
2011,08,16,04,51,9.30
2011,08,16,04,52,9.30
2011,08,16,04,53,9.30
2011,08,16,04,54,9.30
2011,08,16,04,55,9.30
2011,08,16,04,56,9.30
2011,08,16,04,57,9.30
2011,08,16,04,58,9.30
2011,08,16,04,59,9.20
2011,08,16,05,00,9.20
2011,08,16,05,01,9.20
2011,08,16,05,02,9.20
2011,08,16,05,03,9.20
2011,08,16,05,04,9.20
2011,08,16,05,05,9.20
2011,08,16,05,06,9.20
2011,08,16,05,07,9.20
2011,08,16,05,08,9.20
2011,08,16,05,09,9.20
2011,08,16,05,10,9.20
2011,08,16,05,11,9.20
2011,08,16,05,12,9.20
2011,08,16,05,13,9.20
2011,08,16,05,14,9.20
2011,08,16,05,15,9.20
2011,08,16,05,16,9.20
2011,08,16,05,17,9.20
2011,08,16,05,18,9.20
2011,08,16,05,19,9.20
2011,08,16,05,20,9.20
2011,08,16,05,21,9.20
2011,08,16,05,22,9.20
2011,08,16,05,23,9.20
2011,08,16,05,24,9.20
2011,08,16,05,25,9.20
2011,08,16,05,26,9.20
2011,08,16,05,27,9.20
2011,08,16,05,28,9.20
2011,08,16,05,29,9.20
2011,08,16,05,30,9.20
2011,08,16,05,31,9.20
2011,08,16,05,32,9.10
2011,08,16,05,33,9.10
2011,08,16,05,34,9.10
2011,08,16,05,35,9.10
2011,08,16,05,36,9.10
2011,08,16,05,37,9.10
2011,08,16,05,38,9.10
2011,08,16,05,39,9.10
2011,08,16,05,40,9.10
2011,08,16,05,41,9.10
2011,08,16,05,42,9.10
2011,08,16,05,43,9.10
2011,08,16,05,44,9.10
2011,08,16,05,45,9.10
2011,08,16,05,46,9.10
2011,08,16,05,47,9.10
2011,08,16,05,48,9.10
2011,08,16,05,49,9.10
2011,08,16,05,50,9.10
2011,08,16,05,51,9.00
2011,08,16,05,52,9.00
2011,08,16,05,53,9.00
2011,08,16,05,54,9.00
2011,08,16,05,55,9.00
2011,08,16,05,56,9.00
2011,08,16,05,57,9.00
2011,08,16,05,58,9.00
2011,08,16,05,59,9.00
2011,08,16,06,00,9.00
2011,08,16,06,01,9.00
2011,08,16,06,02,9.00
2011,08,16,06,03,9.00
2011,08,16,06,04,9.00
2011,08,16,06,05,9.00
2011,08,16,06,06,8.90
2011,08,16,06,07,8.90
2011,08,16,06,08,8.90
2011,08,16,06,09,8.90
2011,08,16,06,10,8.90
2011,08,16,06,11,8.90
2011,08,16,06,12,8.90
2011,08,16,06,13,8.90
2011,08,16,06,14,8.90
2011,08,16,06,15,8.90
2011,08,16,06,16,8.90
2011,08,16,06,17,8.90
2011,08,16,06,18,8.90
2011,08,16,06,19,8.90
2011,08,16,06,20,8.90
2011,08,16,06,21,8.90
2011,08,16,06,22,8.90
2011,08,16,06,23,8.90
2011,08,16,06,24,8.90
2011,08,16,06,25,8.90
2011,08,16,06,26,8.90
2011,08,16,06,27,8.90
2011,08,16,06,28,8.90
2011,08,16,06,29,8.90
2011,08,16,06,30,8.90
2011,08,16,06,31,9.00
2011,08,16,06,32,9.00
2011,08,16,06,33,9.10
2011,08,16,06,34,9.10
2011,08,16,06,35,9.20
2011,08,16,06,36,9.20
2011,08,16,06,37,9.30
2011,08,16,06,38,9.30
2011,08,16,06,39,9.30
2011,08,16,06,40,9.30
2011,08,16,06,41,9.40
2011,08,16,06,42,9.40
2011,08,16,06,43,9.40
2011,08,16,06,44,9.40
2011,08,16,06,45,9.50
2011,08,16,06,46,9.50
2011,08,16,06,47,9.50
2011,08,16,06,48,9.50
2011,08,16,06,49,9.50
2011,08,16,06,50,9.50
2011,08,16,06,51,9.40
2011,08,16,06,52,9.40
2011,08,16,06,53,9.40
2011,08,16,06,54,9.40
2011,08,16,06,55,9.40
2011,08,16,06,56,9.40
2011,08,16,06,57,9.40
2011,08,16,06,58,9.40
2011,08,16,06,59,9.40
2011,08,16,07,00,9.40
2011,08,16,07,01,9.40
2011,08,16,07,02,9.40
2011,08,16,07,03,9.40
2011,08,16,07,04,9.40
2011,08,16,07,05,9.40
2011,08,16,07,06,9.30
2011,08,16,07,07,9.30
2011,08,16,07,08,9.30
2011,08,16,07,09,9.30
2011,08,16,07,10,9.30
2011,08,16,07,11,9.30
2011,08,16,07,12,9.30
2011,08,16,07,13,9.30
2011,08,16,07,14,9.30
2011,08,16,07,15,9.30
2011,08,16,07,16,9.30
2011,08,16,07,17,9.30
2011,08,16,07,18,9.30
2011,08,16,07,19,9.40
2011,08,16,07,20,9.40
2011,08,16,07,21,9.40
2011,08,16,07,22,9.40
2011,08,16,07,23,9.40
2011,08,16,07,24,9.40
2011,08,16,07,25,9.40
2011,08,16,07,26,9.40
2011,08,16,07,27,9.50
2011,08,16,07,28,9.50
2011,08,16,07,29,9.60
2011,08,16,07,30,9.60
2011,08,16,07,31,9.60
2011,08,16,07,32,9.60
2011,08,16,07,33,9.60
2011,08,16,07,34,9.60
2011,08,16,07,35,9.70
2011,08,16,07,36,9.70
2011,08,16,07,37,9.80
2011,08,16,07,38,9.90
2011,08,16,07,39,10.00
2011,08,16,07,40,10.00
2011,08,16,07,41,10.10
2011,08,16,07,42,10.20
2011,08,16,07,43,10.30
2011,08,16,07,44,10.40
2011,08,16,07,45,10.40
2011,08,16,07,46,10.50
2011,08,16,07,47,10.50
2011,08,16,07,48,10.60
2011,08,16,07,49,10.60
2011,08,16,07,50,10.60
2011,08,16,07,51,10.70
2011,08,16,07,52,10.70
2011,08,16,07,53,10.70
2011,08,16,07,54,10.70
2011,08,16,07,55,10.70
2011,08,16,07,56,10.70
2011,08,16,07,57,10.80
2011,08,16,07,58,10.80
2011,08,16,07,59,10.80
2011,08,16,08,00,10.90
2011,08,16,08,01,11.00
2011,08,16,08,02,11.00
2011,08,16,08,03,11.10
2011,08,16,08,04,11.20
2011,08,16,08,05,11.20
2011,08,16,08,06,11.30
2011,08,16,08,07,11.30
2011,08,16,08,08,11.40
2011,08,16,08,09,11.40
2011,08,16,08,10,11.50
2011,08,16,08,11,11.50
2011,08,16,08,12,11.60
2011,08,16,08,13,11.60
2011,08,16,08,14,11.70
2011,08,16,08,15,11.80
2011,08,16,08,16,11.80
2011,08,16,08,17,11.90
2011,08,16,08,18,11.90
2011,08,16,08,19,12.00
2011,08,16,08,20,12.00
2011,08,16,08,21,12.10
2011,08,16,08,22,12.10
2011,08,16,08,23,12.20
2011,08,16,08,24,12.20
2011,08,16,08,25,12.30
2011,08,16,08,26,12.30
2011,08,16,08,27,12.40
2011,08,16,08,28,12.50
2011,08,16,08,29,12.50
2011,08,16,08,30,12.60
2011,08,16,08,31,12.60
2011,08,16,08,32,12.70
2011,08,16,08,33,12.70
2011,08,16,08,34,12.80
2011,08,16,08,35,12.80
2011,08,16,08,36,12.90
2011,08,16,08,37,13.00
2011,08,16,08,38,13.10
2011,08,16,08,39,13.20
2011,08,16,08,40,13.20
2011,08,16,08,41,13.30
2011,08,16,08,42,13.50
2011,08,16,08,43,13.60
2011,08,16,08,44,13.70
2011,08,16,08,45,13.70
2011,08,16,08,46,13.80
2011,08,16,08,47,13.80
2011,08,16,08,48,13.90
2011,08,16,08,49,14.00
2011,08,16,08,50,14.00
2011,08,16,08,51,14.10
2011,08,16,08,52,14.30
2011,08,16,08,53,14.40
2011,08,16,08,54,14.50
2011,08,16,08,55,14.60
2011,08,16,08,56,14.60
2011,08,16,08,57,14.70
2011,08,16,08,58,14.80
2011,08,16,08,59,14.80
2011,08,16,09,00,14.80
2011,08,16,09,01,14.90
2011,08,16,09,02,15.00
2011,08,16,09,03,15.00
2011,08,16,09,04,15.00
2011,08,16,09,05,15.00
2011,08,16,09,06,15.10
2011,08,16,09,07,15.20
2011,08,16,09,08,15.30
2011,08,16,09,09,15.40
2011,08,16,09,10,15.50
2011,08,16,09,11,15.70
2011,08,16,09,12,15.80
2011,08,16,09,13,15.90
2011,08,16,09,14,16.10
2011,08,16,09,15,16.20
2011,08,16,09,16,16.30
2011,08,16,09,17,16.40
2011,08,16,09,18,16.50
2011,08,16,09,19,16.50
2011,08,16,09,20,16.50
2011,08,16,09,21,16.60
2011,08,16,09,22,16.60
2011,08,16,09,23,16.70
2011,08,16,09,24,16.70
2011,08,16,09,25,16.70
2011,08,16,09,26,16.80
2011,08,16,09,27,16.80
2011,08,16,09,28,16.90
2011,08,16,09,29,16.90
2011,08,16,09,30,16.90
2011,08,16,09,31,17.00
2011,08,16,09,32,17.10
2011,08,16,09,33,17.10
2011,08,16,09,34,17.20
2011,08,16,09,35,17.30
2011,08,16,09,36,17.30
2011,08,16,09,37,17.40
2011,08,16,09,38,17.50
2011,08,16,09,39,17.60
2011,08,16,09,40,17.70
2011,08,16,09,41,17.70
2011,08,16,09,42,17.70
2011,08,16,09,43,17.70
2011,08,16,09,44,17.80
2011,08,16,09,45,17.80
2011,08,16,09,46,17.80
2011,08,16,09,47,17.80
2011,08,16,09,48,17.80
2011,08,16,09,49,17.80
2011,08,16,09,50,17.70
2011,08,16,09,51,17.70
2011,08,16,09,52,17.60
2011,08,16,09,53,17.40
2011,08,16,09,54,17.30
2011,08,16,09,55,17.20
2011,08,16,09,56,17.10
2011,08,16,09,57,17.10
2011,08,16,09,58,17.10
2011,08,16,09,59,17.10
2011,08,16,10,00,17.10
2011,08,16,10,01,17.10
2011,08,16,10,02,17.20
2011,08,16,10,03,17.20
2011,08,16,10,04,17.30
2011,08,16,10,05,17.40
2011,08,16,10,06,17.50
2011,08,16,10,07,17.50
2011,08,16,10,08,17.60
2011,08,16,10,09,17.70
2011,08,16,10,10,17.70
2011,08,16,10,11,17.80
2011,08,16,10,12,17.90
2011,08,16,10,13,18.10
2011,08,16,10,14,18.20
2011,08,16,10,15,18.40
2011,08,16,10,16,18.50
2011,08,16,10,17,18.60
2011,08,16,10,18,18.70
2011,08,16,10,19,18.80
2011,08,16,10,20,18.80
2011,08,16,10,21,18.80
2011,08,16,10,22,18.90
2011,08,16,10,23,18.90
2011,08,16,10,24,18.90
2011,08,16,10,25,19.00
2011,08,16,10,26,19.00
2011,08,16,10,27,19.10
2011,08,16,10,28,19.10
2011,08,16,10,29,19.10
2011,08,16,10,30,19.20
2011,08,16,10,31,19.20
2011,08,16,10,32,19.20
2011,08,16,10,33,19.20
2011,08,16,10,34,19.20
2011,08,16,10,35,19.30
2011,08,16,10,36,19.40
2011,08,16,10,37,19.40
2011,08,16,10,38,19.50
2011,08,16,10,39,19.50
2011,08,16,10,40,19.60
2011,08,16,10,41,19.60
2011,08,16,10,42,19.60
2011,08,16,10,43,19.70
2011,08,16,10,44,19.80
2011,08,16,10,45,19.80
2011,08,16,10,46,19.90
2011,08,16,10,47,20.00
2011,08,16,10,48,20.00
2011,08,16,10,49,20.00
2011,08,16,10,50,20.10
2011,08,16,10,51,20.10
2011,08,16,10,52,20.10
2011,08,16,10,53,20.10
2011,08,16,10,54,20.20
2011,08,16,10,55,20.20
2011,08,16,10,56,20.20
2011,08,16,10,57,20.30
2011,08,16,10,58,20.30
2011,08,16,10,59,20.40
2011,08,16,11,00,20.40
2011,08,16,11,01,20.50
2011,08,16,11,02,20.50
2011,08,16,11,03,20.60
2011,08,16,11,04,20.50
2011,08,16,11,05,20.50
2011,08,16,11,06,20.50
2011,08,16,11,07,20.60
2011,08,16,11,08,20.60
2011,08,16,11,09,20.60
2011,08,16,11,10,20.60
2011,08,16,11,11,20.50
2011,08,16,11,12,20.40
2011,08,16,11,13,20.20
2011,08,16,11,14,19.90
2011,08,16,11,15,19.70
2011,08,16,11,16,19.50
2011,08,16,11,17,19.50
2011,08,16,11,18,19.40
2011,08,16,11,19,19.40
2011,08,16,11,20,19.40
2011,08,16,11,21,19.50
2011,08,16,11,22,19.60
2011,08,16,11,23,19.50
2011,08,16,11,24,19.50
2011,08,16,11,25,19.50
2011,08,16,11,26,19.60
2011,08,16,11,27,19.60
2011,08,16,11,28,19.60
2011,08,16,11,29,19.70
2011,08,16,11,30,19.80
2011,08,16,11,31,19.90
2011,08,16,11,32,19.90
2011,08,16,11,33,19.80
2011,08,16,11,34,19.90
2011,08,16,11,35,19.90
2011,08,16,11,36,19.90
2011,08,16,11,37,19.90
2011,08,16,11,38,19.80
2011,08,16,11,39,19.80
2011,08,16,11,40,19.80
2011,08,16,11,41,19.60
2011,08,16,11,42,19.50
2011,08,16,11,43,19.40
2011,08,16,11,44,19.40
2011,08,16,11,45,19.40
2011,08,16,11,46,19.50
2011,08,16,11,47,19.30
2011,08,16,11,48,19.20
2011,08,16,11,49,19.10
2011,08,16,11,50,19.10
2011,08,16,11,51,19.10
2011,08,16,11,52,19.00
2011,08,16,11,53,18.90
2011,08,16,11,54,19.00
2011,08,16,11,55,19.00
2011,08,16,11,56,19.00
2011,08,16,11,57,19.10
2011,08,16,11,58,19.20
2011,08,16,11,59,19.40
2011,08,16,12,00,19.50
2011,08,16,12,01,19.60
2011,08,16,12,02,19.60
2011,08,16,12,03,19.50
2011,08,16,12,04,19.40
2011,08,16,12,05,19.20
2011,08,16,12,06,19.20
2011,08,16,12,07,19.20
2011,08,16,12,08,19.30
2011,08,16,12,09,19.30
2011,08,16,12,10,19.50
2011,08,16,12,11,19.60
2011,08,16,12,12,19.60
2011,08,16,12,13,19.60
2011,08,16,12,14,19.60
2011,08,16,12,15,19.50
2011,08,16,12,16,19.20
2011,08,16,12,17,19.00
2011,08,16,12,18,18.80
2011,08,16,12,19,18.70
2011,08,16,12,20,18.70
2011,08,16,12,21,18.60
2011,08,16,12,22,18.60
2011,08,16,12,23,18.50
2011,08,16,12,24,18.40
2011,08,16,12,25,18.40
2011,08,16,12,26,18.30
2011,08,16,12,27,18.20
2011,08,16,12,28,18.20
2011,08,16,12,29,18.20
2011,08,16,12,30,18.20
2011,08,16,12,31,18.20
2011,08,16,12,32,18.30
2011,08,16,12,33,18.30
2011,08,16,12,34,18.30
2011,08,16,12,35,18.30
2011,08,16,12,36,18.30
2011,08,16,12,37,18.20
2011,08,16,12,38,18.20
2011,08,16,12,39,18.30
2011,08,16,12,40,18.40
2011,08,16,12,41,18.40
2011,08,16,12,42,18.30
2011,08,16,12,43,18.30
2011,08,16,12,44,18.20
2011,08,16,12,45,18.20
2011,08,16,12,46,18.30
2011,08,16,12,47,18.40
2011,08,16,12,48,18.50
2011,08,16,12,49,18.60
2011,08,16,12,50,18.80
2011,08,16,12,51,18.90
2011,08,16,12,52,18.90
2011,08,16,12,53,18.90
2011,08,16,12,54,18.90
2011,08,16,12,55,18.80
2011,08,16,12,56,18.80
2011,08,16,12,57,18.90
2011,08,16,12,58,18.90
2011,08,16,12,59,18.90
2011,08,16,13,00,18.90
2011,08,16,13,01,18.80
2011,08,16,13,02,18.70
2011,08,16,13,03,18.60
2011,08,16,13,04,18.50
2011,08,16,13,05,18.50
2011,08,16,13,06,18.40
2011,08,16,13,07,18.50
2011,08,16,13,08,18.50
2011,08,16,13,09,18.60
2011,08,16,13,10,18.70
2011,08,16,13,11,18.80
2011,08,16,13,12,18.90
2011,08,16,13,13,19.10
2011,08,16,13,14,19.10
2011,08,16,13,15,19.20
2011,08,16,13,16,19.10
2011,08,16,13,17,19.10
2011,08,16,13,18,19.00
2011,08,16,13,19,18.80
2011,08,16,13,20,18.80
2011,08,16,13,21,18.80
2011,08,16,13,22,18.80
2011,08,16,13,23,18.80
2011,08,16,13,24,18.80
2011,08,16,13,25,18.80
2011,08,16,13,26,18.80
2011,08,16,13,27,18.80
2011,08,16,13,28,18.70
2011,08,16,13,29,18.70
2011,08,16,13,30,18.80
2011,08,16,13,31,18.80
2011,08,16,13,32,18.80
2011,08,16,13,33,18.90
2011,08,16,13,34,19.00
2011,08,16,13,35,19.10
2011,08,16,13,36,19.30
2011,08,16,13,37,19.30
2011,08,16,13,38,19.40
2011,08,16,13,39,19.40
2011,08,16,13,40,19.40
2011,08,16,13,41,19.50
2011,08,16,13,42,19.50
2011,08,16,13,43,19.50
2011,08,16,13,44,19.40
2011,08,16,13,45,19.50
2011,08,16,13,46,19.50
2011,08,16,13,47,19.60
2011,08,16,13,48,19.70
2011,08,16,13,49,19.90
2011,08,16,13,50,20.00
2011,08,16,13,51,20.10
2011,08,16,13,52,20.20
2011,08,16,13,53,20.40
2011,08,16,13,54,20.50
2011,08,16,13,55,20.60
2011,08,16,13,56,20.60
2011,08,16,13,57,20.50
2011,08,16,13,58,20.40
2011,08,16,13,59,20.30
2011,08,16,14,00,20.40
2011,08,16,14,01,20.40
2011,08,16,14,02,20.50
2011,08,16,14,03,20.40
2011,08,16,14,04,20.50
2011,08,16,14,05,20.50
2011,08,16,14,06,20.60
2011,08,16,14,07,20.60
2011,08,16,14,08,20.70
2011,08,16,14,09,20.60
2011,08,16,14,10,20.60
2011,08,16,14,11,20.70
2011,08,16,14,12,20.70
2011,08,16,14,13,20.80
2011,08,16,14,14,20.90
2011,08,16,14,15,21.00
2011,08,16,14,16,21.10
2011,08,16,14,17,21.20
2011,08,16,14,18,21.30
2011,08,16,14,19,21.40
2011,08,16,14,20,21.40
2011,08,16,14,21,21.40
2011,08,16,14,22,21.40
2011,08,16,14,23,21.40
2011,08,16,14,24,21.40
2011,08,16,14,25,21.40
2011,08,16,14,26,21.40
2011,08,16,14,27,21.40
2011,08,16,14,28,21.20
2011,08,16,14,29,21.10
2011,08,16,14,30,21.00
2011,08,16,14,31,20.80
2011,08,16,14,32,20.80
2011,08,16,14,33,20.80
2011,08,16,14,34,20.90
2011,08,16,14,35,20.90
2011,08,16,14,36,20.90
2011,08,16,14,37,20.80
2011,08,16,14,38,20.80
2011,08,16,14,39,20.80
2011,08,16,14,40,20.80
2011,08,16,14,41,20.80
2011,08,16,14,42,20.70
2011,08,16,14,43,20.70
2011,08,16,14,44,20.60
2011,08,16,14,45,20.60
2011,08,16,14,46,20.60
2011,08,16,14,47,20.60
2011,08,16,14,48,20.60
2011,08,16,14,49,20.60
2011,08,16,14,50,20.60
2011,08,16,14,51,20.60
2011,08,16,14,52,20.70
2011,08,16,14,53,20.70
2011,08,16,14,54,20.80
2011,08,16,14,55,20.80
2011,08,16,14,56,20.90
2011,08,16,14,57,21.00
2011,08,16,14,58,21.10
2011,08,16,14,59,21.20
2011,08,16,15,00,21.20
2011,08,16,15,01,21.20
2011,08,16,15,02,21.10
2011,08,16,15,03,21.00
2011,08,16,15,04,20.90
2011,08,16,15,05,20.90
2011,08,16,15,06,20.90
2011,08,16,15,07,20.90
2011,08,16,15,08,20.90
2011,08,16,15,09,20.90
2011,08,16,15,10,20.80
2011,08,16,15,11,20.80
2011,08,16,15,12,20.70
2011,08,16,15,13,20.70
2011,08,16,15,14,20.70
2011,08,16,15,15,20.70
2011,08,16,15,16,20.70
2011,08,16,15,17,20.80
2011,08,16,15,18,20.80
2011,08,16,15,19,20.80
2011,08,16,15,20,20.80
2011,08,16,15,21,20.80
2011,08,16,15,22,20.80
2011,08,16,15,23,20.90
2011,08,16,15,24,20.90
2011,08,16,15,25,21.00
2011,08,16,15,26,21.10
2011,08,16,15,27,21.20
2011,08,16,15,28,21.20
2011,08,16,15,29,21.20
2011,08,16,15,30,21.10
2011,08,16,15,31,21.10
2011,08,16,15,32,21.00
2011,08,16,15,33,21.00
2011,08,16,15,34,21.00
2011,08,16,15,35,20.90
2011,08,16,15,36,20.90
2011,08,16,15,37,20.90
2011,08,16,15,38,20.90
2011,08,16,15,39,21.00
2011,08,16,15,40,21.10
2011,08,16,15,41,21.20
2011,08,16,15,42,21.30
2011,08,16,15,43,21.30
2011,08,16,15,44,21.30
2011,08,16,15,45,21.40
2011,08,16,15,46,21.40
2011,08,16,15,47,21.50
2011,08,16,15,48,21.50
2011,08,16,15,49,21.40
2011,08,16,15,50,21.40
2011,08,16,15,51,21.40
2011,08,16,15,52,21.40
2011,08,16,15,53,21.50
2011,08,16,15,54,21.50
2011,08,16,15,55,21.50
2011,08,16,15,56,21.50
2011,08,16,15,57,21.50
2011,08,16,15,58,21.50
2011,08,16,15,59,21.50
2011,08,16,16,00,21.40
2011,08,16,16,01,21.40
2011,08,16,16,02,21.30
2011,08,16,16,03,21.30
2011,08,16,16,04,21.30
2011,08,16,16,05,21.20
2011,08,16,16,06,21.10
2011,08,16,16,07,21.10
2011,08,16,16,08,21.10
2011,08,16,16,09,21.10
2011,08,16,16,10,21.00
2011,08,16,16,11,21.00
2011,08,16,16,12,21.00
2011,08,16,16,13,21.00
2011,08,16,16,14,21.10
2011,08,16,16,15,21.00
2011,08,16,16,16,21.00
2011,08,16,16,17,21.00
2011,08,16,16,18,21.00
2011,08,16,16,19,21.00
2011,08,16,16,20,21.00
2011,08,16,16,21,21.00
2011,08,16,16,22,21.00
2011,08,16,16,23,21.00
2011,08,16,16,24,21.00
2011,08,16,16,25,20.90
2011,08,16,16,26,20.90
2011,08,16,16,27,20.90
2011,08,16,16,28,20.90
2011,08,16,16,29,21.00
2011,08,16,16,30,21.00
2011,08,16,16,31,21.10
2011,08,16,16,32,21.10
2011,08,16,16,33,21.10
2011,08,16,16,34,21.10
2011,08,16,16,35,21.20
2011,08,16,16,36,21.20
2011,08,16,16,37,21.20
2011,08,16,16,38,21.30
2011,08,16,16,39,21.30
2011,08,16,16,40,21.30
2011,08,16,16,41,21.30
2011,08,16,16,42,21.30
2011,08,16,16,43,21.30
2011,08,16,16,44,21.30
2011,08,16,16,45,21.30
2011,08,16,16,46,21.40
2011,08,16,16,47,21.40
2011,08,16,16,48,21.40
2011,08,16,16,49,21.50
2011,08,16,16,50,21.50
2011,08,16,16,51,21.40
2011,08,16,16,52,21.30
2011,08,16,16,53,21.30
2011,08,16,16,54,21.30
2011,08,16,16,55,21.20
2011,08,16,16,56,21.10
2011,08,16,16,57,21.10
2011,08,16,16,58,21.10
2011,08,16,16,59,21.20
2011,08,16,17,00,21.20
2011,08,16,17,01,21.20
2011,08,16,17,02,21.20
2011,08,16,17,03,21.20
2011,08,16,17,04,21.30
2011,08,16,17,05,21.30
2011,08,16,17,06,21.20
2011,08,16,17,07,21.10
2011,08,16,17,08,21.10
2011,08,16,17,09,21.00
2011,08,16,17,10,20.90
2011,08,16,17,11,20.90
2011,08,16,17,12,20.80
2011,08,16,17,13,20.70
2011,08,16,17,14,20.70
2011,08,16,17,15,20.70
2011,08,16,17,16,20.70
2011,08,16,17,17,20.60
2011,08,16,17,18,20.50
2011,08,16,17,19,20.50
2011,08,16,17,20,20.50
2011,08,16,17,21,20.40
2011,08,16,17,22,20.40
2011,08,16,17,23,20.40
2011,08,16,17,24,20.40
2011,08,16,17,25,20.40
2011,08,16,17,26,20.50
2011,08,16,17,27,20.60
2011,08,16,17,28,20.60
2011,08,16,17,29,20.60